| time (UTC) | temp C | wind direction | speed KPH | gust KPH | rain 1hr cm | rain 24hr cm | rain mn cm | humidity % | barometer mb |
| 20260510163910 | 21 | 223 | 3.2 | 9.7 | 0.00 | 1.09 | 0.00 | 69 | 1012.9 |
| 20260510162859 | 21 | 296 | 3.2 | 8.0 | 0.00 | 1.09 | 0.00 | 70 | 1013.1 |
| 20260510161909 | 21 | 212 | 4.8 | 11.3 | 0.00 | 1.09 | 0.00 | 70 | 1012.9 |
| 20260510160904 | 20 | 275 | 4.8 | 11.3 | 0.00 | 1.09 | 0.00 | 70 | 1013.1 |
| 20260510155914 | 20 | 316 | 4.8 | 8.0 | 0.00 | 1.09 | 0.00 | 70 | 1013.2 |
| 20260510153916 | 20 | 171 | 6.4 | 12.9 | 0.00 | 1.09 | 0.00 | 71 | 1013.2 |
| 20260510152905 | 20 | 236 | 4.8 | 6.4 | 0.00 | 1.09 | 0.00 | 73 | 1013.2 |
| 20260510151916 | 20 | 11 | 3.2 | 8.0 | 0.00 | 1.09 | 0.00 | 73 | 1013.1 |
| 20260510150907 | 19 | 294 | 4.8 | 11.3 | 0.00 | 1.09 | 0.00 | 77 | 1013.1 |
| 20260510145918 | 18 | 165 | 1.6 | 6.4 | 0.00 | 1.09 | 0.00 | 82 | 1013.1 |
| 20260510143900 | 17 | 36 | 1.6 | 6.4 | 0.00 | 1.09 | 0.00 | 85 | 1013.0 |
| 20260510142914 | 17 | 196 | 3.2 | 8.0 | 0.00 | 1.09 | 0.00 | 87 | 1013.1 |
| 20260510140916 | 16 | 202 | 0.0 | 6.4 | 0.00 | 1.09 | 0.00 | 89 | 1013.0 |
| 20260510135906 | 16 | 206 | 1.6 | 8.0 | 0.00 | 1.09 | 0.00 | 90 | 1012.8 |
| 20260510134915 | 16 | 193 | 6.4 | 11.3 | 0.00 | 1.09 | 0.00 | 91 | 1012.9 |
| 20260510132917 | 15 | 195 | 3.2 | 8.0 | 0.00 | 1.09 | 0.00 | 94 | 1012.9 |
| 20260510131906 | 14 | 191 | 0.0 | 4.8 | 0.00 | 1.09 | 0.00 | 96 | 1012.9 |
| 20260510125909 | 13 | 225 | 0.0 | 0.0 | 0.00 | 1.09 | 0.00 | 97 | 1013.1 |
| 20260510124904 | 12 | 94 | 0.0 | 0.0 | 0.00 | 1.09 | 0.00 | 97 | 1013.0 |
| 20260510122904 | 11 | 213 | 0.0 | 0.0 | 0.00 | 1.09 | 0.00 | 97 | 1012.5 |
| 20260510121914 | 11 | 141 | 0.0 | 0.0 | 0.00 | 1.09 | 0.00 | 97 | 1012.5 |
| 20260510115916 | 11 | 62 | 0.0 | 0.0 | 0.00 | 1.09 | 0.00 | 97 | 1012.4 |
| 20260510114906 | 10 | 62 | 0.0 | 0.0 | 0.00 | 1.09 | 0.00 | 97 | 1012.3 |
| 20260510113859 | 10 | 62 | 0.0 | 0.0 | 0.00 | 1.09 | 0.00 | 97 | 1012.3 |
| 20260510111902 | 10 | 62 | 0.0 | 0.0 | 0.00 | 1.09 | 0.00 | 97 | 1012.0 |
| 20260510110913 | 10 | 62 | 0.0 | 0.0 | 0.00 | 1.09 | 0.00 | 97 | 1012.1 |
| 20260510105907 | 10 | 62 | 0.0 | 0.0 | 0.00 | 1.09 | 0.00 | 97 | 1012.0 |
| 20260510104916 | 10 | 62 | 0.0 | 0.0 | 0.00 | 1.09 | 0.00 | 97 | 1012.0 |
| 20260510103907 | 9 | 62 | 0.0 | 0.0 | 0.00 | 1.09 | 0.00 | 96 | 1011.9 |
| 20260510102859 | 9 | 62 | 0.0 | 0.0 | 0.00 | 1.09 | 0.00 | 96 | 1011.8 |
| 20260510100901 | 9 | 62 | 0.0 | 0.0 | 0.00 | 1.09 | 0.00 | 96 | 1011.5 |
| 20260510094902 | 10 | 62 | 0.0 | 0.0 | 0.00 | 1.09 | 0.00 | 96 | 1011.6 |
| 20260510093913 | 10 | 62 | 0.0 | 0.0 | 0.00 | 1.09 | 0.00 | 96 | 1011.6 |
| 20260510092907 | 10 | 62 | 0.0 | 0.0 | 0.00 | 1.09 | 0.00 | 96 | 1011.6 |
| 20260510091916 | 10 | 62 | 0.0 | 0.0 | 0.00 | 1.09 | 0.00 | 96 | 1011.7 |
| 20260510090904 | 10 | 62 | 0.0 | 0.0 | 0.00 | 1.09 | 0.00 | 96 | 1011.7 |
| 20260510085914 | 10 | 62 | 0.0 | 0.0 | 0.00 | 1.09 | 0.00 | 96 | 1011.7 |
| 20260510084905 | 10 | 62 | 0.0 | 0.0 | 0.00 | 1.09 | 0.00 | 96 | 1011.8 |
| 20260510082906 | 10 | 62 | 0.0 | 0.0 | 0.00 | 1.09 | 0.00 | 96 | 1012.0 |
| 20260510081857 | 10 | 141 | 0.0 | 0.0 | 0.00 | 1.09 | 0.00 | 96 | 1012.0 |
| 20260510080907 | 10 | 141 | 0.0 | 0.0 | 0.00 | 1.09 | 0.00 | 96 | 1011.9 |
| 20260510075902 | 10 | 76 | 1.6 | 4.8 | 0.00 | 1.09 | 0.00 | 96 | 1012.0 |
| 20260510074914 | 10 | 117 | 3.2 | 12.9 | 0.00 | 1.09 | 0.00 | 96 | 1011.7 |
| 20260510073902 | 10 | 67 | 0.0 | 0.0 | 0.00 | 1.09 | 0.00 | 96 | 1011.1 |
| 20260510072911 | 10 | 67 | 0.0 | 0.0 | 0.00 | 1.09 | 0.00 | 96 | 1011.0 |
| 20260510071902 | 10 | 67 | 0.0 | 0.0 | 0.00 | 1.09 | 0.00 | 96 | 1011.0 |
| 20260510070912 | 10 | 67 | 0.0 | 0.0 | 0.00 | 1.09 | 0.00 | 96 | 1011.0 |
| 20260510065904 | 10 | 67 | 0.0 | 0.0 | 0.00 | 1.09 | 0.00 | 96 | 1011.2 |
| 20260510063906 | 11 | 67 | 0.0 | 0.0 | 0.00 | 1.09 | 0.00 | 96 | 1011.3 |
| 20260510061913 | 11 | 67 | 0.0 | 0.0 | 0.00 | 1.09 | 0.00 | 96 | 1011.6 |
| 20260510060902 | 11 | 67 | 0.0 | 0.0 | 0.00 | 1.09 | 0.00 | 96 | 1011.4 |
| 20260510055911 | 11 | 67 | 0.0 | 0.0 | 0.00 | 1.09 | 0.00 | 96 | 1011.1 |
| 20260510054901 | 10 | 67 | 0.0 | 0.0 | 0.00 | 1.09 | 0.00 | 96 | 1010.9 |
| 20260510053911 | 10 | 67 | 0.0 | 0.0 | 0.00 | 1.09 | 0.00 | 96 | 1011.1 |
| 20260510052901 | 10 | 67 | 0.0 | 0.0 | 0.00 | 1.09 | 0.00 | 96 | 1011.1 |
| 20260510051912 | 10 | 67 | 0.0 | 0.0 | 0.00 | 1.09 | 0.00 | 96 | 1011.2 |
| 20260510045914 | 10 | 17 | 0.0 | 0.0 | 0.00 | 1.09 | 0.00 | 96 | 1011.2 |
| 20260510044904 | 10 | 17 | 0.0 | 0.0 | 0.00 | 1.09 | 0.00 | 96 | 1011.1 |
| 20260510042910 | 10 | 17 | 0.0 | 0.0 | 0.00 | 1.09 | 0.00 | 96 | 1011.2 |
| 20260510041901 | 10 | 17 | 0.0 | 0.0 | 0.00 | 1.09 | 0.00 | 96 | 1011.2 |
| 20260510040911 | 10 | 17 | 0.0 | 0.0 | 0.00 | 1.09 | 0.00 | 96 | 1011.3 |
| 20260510035901 | 10 | 17 | 0.0 | 0.0 | 0.00 | 1.09 | 1.09 | 96 | 1011.3 |
| 20260510034911 | 10 | 17 | 0.0 | 0.0 | 0.00 | 1.09 | 1.09 | 96 | 1011.2 |
| 20260510033900 | 10 | 17 | 0.0 | 0.0 | 0.00 | 1.09 | 1.09 | 96 | 1011.0 |
| 20260510032909 | 10 | 17 | 0.0 | 0.0 | 0.00 | 1.09 | 1.09 | 96 | 1010.9 |
| 20260510030857 | 10 | 17 | 0.0 | 0.0 | 0.00 | 1.09 | 1.09 | 95 | 1011.0 |
| 20260510025906 | 10 | 17 | 0.0 | 0.0 | 0.00 | 1.09 | 1.09 | 95 | 1010.9 |
| 20260510024916 | 10 | 17 | 0.0 | 0.0 | 0.00 | 1.09 | 1.09 | 95 | 1010.8 |
| 20260510023906 | 10 | 17 | 0.0 | 0.0 | 0.00 | 1.09 | 1.09 | 95 | 1010.9 |
| 20260510022915 | 10 | 17 | 0.0 | 0.0 | 0.00 | 1.09 | 1.09 | 95 | 1010.9 |
| 20260510020916 | 10 | 17 | 0.0 | 0.0 | 0.00 | 1.09 | 1.09 | 95 | 1010.9 |
| 20260510015906 | 10 | 17 | 0.0 | 3.2 | 0.00 | 1.09 | 1.09 | 95 | 1011.0 |
| 20260510014859 | 10 | 92 | 0.0 | 0.0 | 0.00 | 1.09 | 1.09 | 94 | 1011.0 |
| 20260510013911 | 10 | 92 | 0.0 | 0.0 | 0.00 | 1.09 | 1.09 | 94 | 1010.9 |
| 20260510012905 | 10 | 92 | 0.0 | 0.0 | 0.00 | 1.09 | 1.09 | 94 | 1011.0 |
| 20260510011915 | 11 | 92 | 0.0 | 0.0 | 0.00 | 1.09 | 1.09 | 94 | 1010.9 |
| 20260510010905 | 11 | 92 | 0.0 | 0.0 | 0.00 | 1.09 | 1.09 | 94 | 1010.9 |
| 20260510005915 | 11 | 92 | 0.0 | 0.0 | 0.00 | 1.09 | 1.09 | 94 | 1010.7 |
| 20260510004906 | 11 | 92 | 0.0 | 0.0 | 0.00 | 1.09 | 1.09 | 94 | 1010.6 |
| 20260510003919 | 12 | 92 | 0.0 | 0.0 | 0.00 | 1.09 | 1.09 | 94 | 1010.4 |
| 20260510002909 | 12 | 92 | 0.0 | 0.0 | 0.00 | 1.09 | 1.09 | 94 | 1010.2 |
| 20260510001919 | 12 | 92 | 0.0 | 0.0 | 0.00 | 1.09 | 1.09 | 94 | 1010.2 |
| 20260510000914 | 12 | 92 | 0.0 | 0.0 | 0.00 | 1.09 | 1.09 | 94 | 1010.3 |
| 20260509235904 | 12 | 93 | 0.0 | 1.6 | 0.00 | 1.09 | 1.09 | 93 | 1010.2 |
| 20260509234914 | 12 | 93 | 0.0 | 3.2 | 0.00 | 1.09 | 1.09 | 93 | 1010.4 |
| 20260509233903 | 12 | 101 | 0.0 | 6.4 | 0.00 | 1.09 | 1.09 | 93 | 1010.1 |
| 20260509232913 | 12 | 93 | 1.6 | 9.7 | 0.00 | 1.09 | 1.09 | 93 | 1010.0 |
| 20260509231921 | 12 | 127 | 4.8 | 11.3 | 0.00 | 1.09 | 1.09 | 92 | 1009.9 |
| 20260509230911 | 13 | 109 | 1.6 | 8.0 | 0.00 | 1.09 | 1.09 | 92 | 1009.8 |
| 20260509224913 | 13 | 107 | 3.2 | 9.7 | 0.00 | 1.09 | 1.09 | 92 | 1009.9 |
| 20260509223907 | 13 | 127 | 6.4 | 9.7 | 0.00 | 1.09 | 1.09 | 91 | 1009.9 |
| 20260509213916 | 13 | 122 | 0.0 | 4.8 | 0.05 | 1.09 | 1.09 | 93 | 1010.0 |
| 20260509212924 | 13 | 194 | 0.0 | 0.0 | 0.15 | 1.09 | 1.09 | 93 | 1010.0 |
| 20260509211914 | 13 | 194 | 0.0 | 4.8 | 0.15 | 1.07 | 1.07 | 94 | 1010.1 |
| 20260509210924 | 12 | 194 | 0.0 | 4.8 | 0.18 | 1.07 | 1.07 | 94 | 1010.1 |
| 20260509205914 | 12 | 194 | 0.0 | 0.0 | 0.23 | 1.07 | 1.07 | 94 | 1010.0 |
| 20260509204924 | 12 | 194 | 0.0 | 4.8 | 0.28 | 1.07 | 1.07 | 94 | 1010.2 |
| 20260509203917 | 12 | 38 | 0.0 | 0.0 | 0.36 | 1.04 | 1.04 | 94 | 1010.2 |
| 20260509202926 | 12 | 38 | 0.0 | 0.0 | 0.30 | 0.94 | 0.94 | 94 | 1010.3 |
| 20260509201915 | 12 | 38 | 0.0 | 0.0 | 0.30 | 0.91 | 0.91 | 94 | 1010.1 |
| 20260509200924 | 12 | 38 | 0.0 | 0.0 | 0.33 | 0.89 | 0.89 | 93 | 1010.2 |
| 20260509195914 | 12 | 38 | 0.0 | 0.0 | 0.30 | 0.84 | 0.84 | 93 | 1010.3 |
| 20260509194923 | 12 | 316 | 0.0 | 0.0 | 0.33 | 0.79 | 0.79 | 93 | 1010.8 |
| 20260509192925 | 12 | 270 | 1.6 | 4.8 | 0.30 | 0.64 | 0.64 | 93 | 1011.2 |
| 20260509191913 | 12 | 239 | 3.2 | 8.0 | 0.33 | 0.61 | 0.61 | 93 | 1011.2 |
| 20260509190925 | 12 | 87 | 0.0 | 0.0 | 0.33 | 0.56 | 0.56 | 93 | 1011.2 |
| 20260509185918 | 12 | 185 | 0.0 | 0.0 | 0.33 | 0.53 | 0.53 | 93 | 1011.3 |
| 20260509184909 | 12 | 166 | 0.0 | 0.0 | 0.30 | 0.46 | 0.46 | 93 | 1011.3 |
| 20260509183921 | 12 | 166 | 0.0 | 1.6 | 0.30 | 0.41 | 0.41 | 92 | 1011.4 |
| 20260509182911 | 13 | 215 | 1.6 | 3.2 | 0.30 | 0.33 | 0.33 | 92 | 1011.3 |
| 20260509181920 | 13 | 75 | 0.0 | 0.0 | 0.28 | 0.28 | 0.28 | 91 | 1011.2 |
| 20260509174914 | 13 | 164 | 0.0 | 0.0 | 0.15 | 0.15 | 0.15 | 88 | 1011.5 |
| 20260509173924 | 13 | 241 | 0.0 | 4.8 | 0.10 | 0.10 | 0.10 | 87 | 1011.8 |
| 20260509172918 | 14 | 198 | 1.6 | 3.2 | 0.03 | 0.03 | 0.03 | 86 | 1011.6 |
| 20260509170919 | 15 | 247 | 0.0 | 4.8 | 0.00 | 0.00 | 0.00 | 81 | 1011.6 |
| 20260509165928 | 15 | 289 | 3.2 | 9.7 | 0.00 | 0.00 | 0.00 | 79 | 1011.4 |
| 20260509164917 | 15 | 306 | 3.2 | 9.7 | 0.00 | 0.00 | 0.00 | 79 | 1011.4 |